Location: Eurasberg
(48.3353°N, 11.0839°E)
Time: 10:49:50
(UTC+00:00)

NOAA 12 - Pass Details

Date: 18 January 2026
Orbit: 792 x 813 km, 98.6° (Epoch: 11 February)

Event Time Altitude Azimuth Distance (km) Brightness Sun altitude
Rises 05:00:43 0° 10° (N) 3,305 7.3 -19.3°
Reaches altitude 10° 05:03:05 10° 7° (N) 2,371 6.5 -18.9°
Maximum altitude 05:08:10 54° 291° (WNW) 960 4.1 -18.1°
Drops below altitude 10° 05:13:14 10° 215° (SW) 2,359 6.3 -17.3°
Sets 05:15:36 0° 211° (SSW) 3,287 7.1 -16.9°
